Location: Unspecified
(0.0000°N, 0.0000°E)
Time: 16:30:38
(UTC+00:00)

Vanguard 1 Rocket - Pass Details

Date: 25 January 2020
Orbit: 650 x 4226 km, 34.3° (Epoch: 24 February)

Event Time Altitude Azimuth Distance (km) Brightness Sun altitude
Rises 04:56:04 0° 222° (SW) 3,242 10.0 -17.9°
Reaches altitude 10° 04:58:46 10° 213° (SSW) 2,141 9.2 -17.3°
Maximum altitude 05:03:00 38° 144° (SE) 987 8.1 -16.3°
Drops below altitude 10° 05:07:19 10° 75° (ENE) 2,176 10.2 -15.3°
Sets 05:10:04 0° 67° (ENE) 3,302 11.0 -14.6°
